User: anonymous   Login
Location: Unspecified
(0.0000°N, 0.0000°E)
Time: 18:50:03
(UTC+00:00)
Language:

APRIZESAT 9 - Orbit

View from above orbital plane
View from above orbital plane
View from above satellite
View from above satellite

Ground track
Ground track

The orbit data is extracted from the following two-line orbital elements,

1 40018U 14033J   17145.89425731 +.00000073 +00000-0 +19973-4 0  9994
2 40018 097.8474 024.1002 0072188 022.8098 337.6288 14.69800466157215
Epoch (UTC): 25 May 2017 21:27:43
Eccentricity: 0.0072188
inclination: 97.8474°
perigee height: 611 km
apogee height: 712 km
right ascension of ascending node: 24.1002°
argument of perigee: 22.8098°
revolutions per day: 14.69800466
mean anomaly at epoch: 337.6288°
orbit number at epoch: 15721

The dashed part of the orbit path shows where the satellite is in the earth's shadow,  

DLR